Home   Weather   Westport   Past weeks
Flag for USA

Past Weather in Westport, Connecticut, USA — Yesterday and Last 2 Weeks

Now
74 °F

Rain. Fog.


Feels Like: 71 °F
Forecast: 78 / 72 °F
Wind: 3 mph from Southeast

Location: Sikorsky Memorial Airport

Current Time: Jul 18, 2019 at 1:08:58 am

Latest Report: Jul 17, 2019 at 11:52 pm


Visibility: 6 mi

Pressure: 29.91 "Hg

Humidity: 94%

Dew Point: 72 °F

Location of WestportLocation

Past Weather in Westport — Graph

°F

Westport Temperature Yesterday

Maximum temperature yesterday: 90 °F (at 12:52 pm)
Minimum temperature yesterday: 74 °F (at 11:52 pm)
Average temperature yesterday: 81 °F

High & Low Weather Summary for the Past Weeks

 TemperatureHumidityPressure
High92 °F (Jul 14, 3:52 pm)94% (Jul 12, 12:21 am)30.18 "Hg (Jul 12, 12:21 am)
Low68 °F (Jul 9, 4:52 am)29% (Jul 14, 4:52 pm)29.68 "Hg (Jul 12, 6:04 am)
Average78 °F70%29.95 "Hg
* Reported Jul 2 11:52 pm — Jul 17 11:52 pm, Westport. Weather by CustomWeather, © 2019

Note: Actual official high and low records may vary slightly from our data, if they occured in-between our weather recording intervals... More about our weather records

Advertising

Westport Weather History for the Previous 24 Hours

Scroll right to see more
 ConditionsComfort  
Time TempWeatherWind HumidityBarometerVisibility
11:52 pm
Wed, Jul 17
74 °FRain. Fog.3 mph94%29.91 "Hg6 mi
10:52 pm75 °FLight rain. Passing clouds.6 mph90%29.90 "Hg10 mi
9:52 pm75 °FLight rain. Partly cloudy.No wind90%29.93 "Hg8 mi
9:31 pm75 °FLight rain. Fog.15 mph88%29.96 "Hg6 mi
8:52 pm75 °FThunderstorms. Fog.3 mph90%29.89 "Hg3 mi
7:52 pm80 °FThundershowers. Sunny.9 mph76%29.87 "Hg10 mi
7:34 pm82 °FScattered clouds.5 mph74%29.86 "Hg10 mi
6:52 pm80 °FThunderstorms. Scattered clouds.6 mph76%29.86 "Hg8 mi
5:52 pm80 °FThunderstorms. Scattered clouds.13 mph79%29.86 "Hg10 mi
5:36 pm75 °FStrong thunderstorms. Fog.7 mph88%29.88 "Hg1 mi
4:52 pm81 °FThunderstorms. Broken clouds.7 mph69%29.86 "Hg7 mi
4:33 pm85 °FThunderstorms. Scattered clouds.3 mph55%29.87 "Hg10 mi
4:17 pm87 °FThundershowers. Sunny.6 mph51%29.86 "Hg10 mi
3:52 pm88 °FSunny.5 mph59%29.87 "Hg10 mi
3:34 pm90 °FPassing clouds.3 mph48%29.87 "Hg10 mi
3:13 pm85 °FThundershowers. Broken clouds.7 mph59%29.88 "Hg10 mi
2:52 pm86 °FThunderstorms. Scattered clouds.7 mph59%29.88 "Hg10 mi
2:33 pm87 °FThunderstorms. Passing clouds.17 mph63%29.89 "Hg10 mi
1:52 pm89 °FSunny.8 mph59%29.90 "Hg10 mi
12:52 pm90 °FSunny.10 mph59%29.92 "Hg10 mi
11:52 am87 °FSunny.13 mph65%29.93 "Hg10 mi
10:52 am84 °FSunny.12 mph72%29.95 "Hg10 mi
9:52 am83 °FSunny.7 mph72%29.96 "Hg10 mi
8:52 am78 °FSunny.5 mph82%29.96 "Hg10 mi
7:52 am77 °FPassing clouds.6 mph85%29.96 "Hg10 mi
6:52 am77 °FSunny.3 mph82%29.96 "Hg10 mi
5:52 am76 °FScattered clouds.3 mph85%29.96 "Hg10 mi
4:52 am76 °FClear.6 mph82%29.96 "Hg10 mi
3:52 am77 °FClear.7 mph79%29.96 "Hg10 mi
2:52 am77 °FClear.No wind82%29.97 "Hg10 mi
1:52 am78 °FClear.5 mph76%29.98 "Hg10 mi
Weather by CustomWeather, © 2019

See weather overview